Location: Contre
(49.7477°N, 2.0963°E)
Time: 11:37:53
(UTC+00:00)

Meteor 2-12 Rocket - Pass Details

Date: 13 November 2025
Orbit: 935 x 957 km, 82.5° (Epoch: 05 December)

Event Time Altitude Azimuth Distance (km) Brightness Sun altitude
Rises 17:22:13 0° 352° (N) 3,634 7.4 -11.6°
Reaches altitude 10° 17:24:48 10° 357° (N) 2,681 6.7 -12.0°
Maximum altitude 17:30:47 53° 74° (ENE) 1,144 4.5 -12.9°
Drops below altitude 10° 17:36:42 10° 151° (SSE) 2,648 6.6 -13.9°
Sets 17:39:14 0° 156° (SSE) 3,586 7.3 -14.3°
